| time (UTC) | temp F | wind direction | speed MPH | gust MPH | rain 1hr in | rain 24hr in | rain mn in | humidity % | barometer mb |
| 20260906061432 | 55 | 344 | 1.0 | 3.0 | 0.00 | 0.00 | 0.00 | 95 | 1015.8 |
| 20260906060426 | 55 | 269 | 0.0 | 3.0 | 0.00 | 0.00 | 0.00 | 95 | 1015.9 |
| 20260906055422 | 55 | 265 | 1.0 | 3.0 | 0.00 | 0.00 | 0.00 | 95 | 1015.8 |
| 20260906054414 | 55 | 265 | 2.0 | 4.0 | 0.00 | 0.00 | 0.00 | 95 | 1015.9 |
| 20260906053428 | 55 | 261 | 2.0 | 4.0 | 0.00 | 0.00 | 0.00 | 94 | 1015.9 |
| 20260906052425 | 55 | 256 | 4.0 | 6.0 | 0.00 | 0.00 | 0.00 | 94 | 1016.0 |
| 20260906051417 | 55 | 263 | 3.0 | 5.0 | 0.00 | 0.00 | 0.00 | 94 | 1015.9 |
| 20260906050430 | 55 | 275 | 0.0 | 5.0 | 0.00 | 0.00 | 0.00 | 94 | 1016.0 |
| 20260906045422 | 55 | 266 | 1.0 | 5.0 | 0.00 | 0.00 | 0.00 | 94 | 1015.9 |
| 20260906044420 | 56 | 286 | 4.0 | 7.0 | 0.00 | 0.00 | 0.00 | 94 | 1015.9 |
| 20260906043453 | 56 | 279 | 3.0 | 5.0 | 0.00 | 0.00 | 0.00 | 93 | 1015.9 |
| 20260906042445 | 56 | 301 | 1.0 | 4.0 | 0.00 | 0.00 | 0.00 | 93 | 1015.9 |
| 20260906041415 | 56 | 260 | 2.0 | 5.0 | 0.00 | 0.00 | 0.00 | 92 | 1015.9 |
| 20260906040432 | 57 | 273 | 0.0 | 3.0 | 0.00 | 0.00 | 0.00 | 92 | 1015.7 |
| 20260906035423 | 57 | 260 | 2.0 | 8.0 | 0.00 | 0.00 | 0.00 | 91 | 1015.8 |
| 20260906034415 | 58 | 282 | 4.0 | 9.0 | 0.00 | 0.00 | 0.00 | 91 | 1015.7 |
| 20260906033429 | 58 | 279 | 3.0 | 7.0 | 0.00 | 0.00 | 0.00 | 91 | 1015.6 |
| 20260906032426 | 58 | 296 | 3.0 | 6.0 | 0.00 | 0.00 | 0.00 | 90 | 1015.6 |
| 20260906031418 | 59 | 291 | 3.0 | 6.0 | 0.00 | 0.00 | 0.00 | 89 | 1015.5 |
| 20260906030431 | 59 | 287 | 2.0 | 6.0 | 0.00 | 0.00 | 0.00 | 89 | 1015.6 |
| 20260906025427 | 60 | 302 | 3.0 | 7.0 | 0.00 | 0.00 | 0.00 | 88 | 1015.6 |
| 20260906024422 | 60 | 283 | 3.0 | 6.0 | 0.00 | 0.00 | 0.00 | 86 | 1015.6 |
| 20260906023436 | 61 | 290 | 3.0 | 7.0 | 0.00 | 0.00 | 0.00 | 84 | 1015.6 |
| 20260906022450 | 62 | 281 | 4.0 | 10.0 | 0.00 | 0.00 | 0.00 | 82 | 1015.7 |
| 20260906021425 | 64 | 293 | 2.0 | 7.0 | 0.00 | 0.00 | 0.00 | 79 | 1015.8 |
| 20260906020420 | 65 | 290 | 2.0 | 6.0 | 0.00 | 0.00 | 0.00 | 76 | 1015.7 |
| 20260906015432 | 66 | 287 | 2.0 | 8.0 | 0.00 | 0.00 | 0.00 | 75 | 1015.9 |
| 20260906014425 | 66 | 304 | 4.0 | 8.0 | 0.00 | 0.00 | 0.00 | 75 | 1015.9 |
| 20260906013442 | 66 | 299 | 4.0 | 10.0 | 0.00 | 0.00 | 0.00 | 73 | 1015.9 |
| 20260906012414 | 66 | 297 | 6.0 | 10.0 | 0.00 | 0.00 | 0.00 | 73 | 1015.9 |
| 20260906011428 | 67 | 324 | 6.0 | 11.0 | 0.00 | 0.00 | 0.00 | 70 | 1016.0 |
| 20260906010422 | 68 | 303 | 5.0 | 10.0 | 0.00 | 0.00 | 0.00 | 69 | 1015.9 |
| 20260906005439 | 68 | 327 | 6.0 | 12.0 | 0.00 | 0.00 | 0.00 | 68 | 1015.8 |
| 20260906004431 | 68 | 286 | 6.0 | 13.0 | 0.00 | 0.00 | 0.00 | 65 | 1015.8 |
| 20260906003425 | 69 | 294 | 8.0 | 14.0 | 0.00 | 0.00 | 0.00 | 64 | 1015.8 |
| 20260906002421 | 69 | 329 | 6.0 | 13.0 | 0.00 | 0.00 | 0.00 | 65 | 1015.7 |
| 20260906001453 | 69 | 324 | 6.0 | 14.0 | 0.00 | 0.00 | 0.00 | 66 | 1015.6 |
| 20260906000426 | 69 | 316 | 6.0 | 17.0 | 0.00 | 0.00 | 0.00 | 63 | 1015.6 |
| 20260905235417 | 71 | 324 | 9.0 | 13.0 | 0.00 | 0.00 | 0.00 | 63 | 1015.5 |
| 20260905234415 | 70 | 237 | 4.0 | 13.0 | 0.00 | 0.00 | 0.00 | 61 | 1015.5 |
| 20260905233429 | 71 | 332 | 6.0 | 14.0 | 0.00 | 0.00 | 0.00 | 60 | 1015.6 |
| 20260905232423 | 71 | 326 | 8.0 | 17.0 | 0.00 | 0.00 | 0.00 | 61 | 1015.4 |
| 20260905231417 | 71 | 277 | 9.0 | 15.0 | 0.00 | 0.00 | 0.00 | 58 | 1015.8 |
| 20260905230414 | 71 | 322 | 8.0 | 17.0 | 0.00 | 0.00 | 0.00 | 59 | 1015.9 |
| 20260905225427 | 71 | 311 | 10.0 | 16.0 | 0.00 | 0.00 | 0.00 | 61 | 1015.9 |
| 20260905224419 | 71 | 319 | 7.0 | 16.0 | 0.00 | 0.00 | 0.00 | 62 | 1015.9 |
| 20260905223433 | 71 | 320 | 9.0 | 16.0 | 0.00 | 0.00 | 0.00 | 61 | 1015.9 |
| 20260905222430 | 71 | 321 | 10.0 | 15.0 | 0.00 | 0.00 | 0.00 | 59 | 1015.9 |
| 20260905221423 | 71 | 277 | 8.0 | 15.0 | 0.00 | 0.00 | 0.00 | 59 | 1015.9 |
| 20260905220417 | 71 | 306 | 6.0 | 14.0 | 0.00 | 0.00 | 0.00 | 61 | 1015.9 |
| 20260905215432 | 72 | 312 | 6.0 | 16.0 | 0.00 | 0.00 | 0.00 | 61 | 1016.0 |
| 20260905214422 | 72 | 284 | 5.0 | 17.0 | 0.00 | 0.00 | 0.00 | 61 | 1016.1 |
| 20260905213416 | 72 | 329 | 7.0 | 14.0 | 0.00 | 0.00 | 0.00 | 62 | 1016.1 |
| 20260905212448 | 71 | 270 | 6.0 | 15.0 | 0.00 | 0.00 | 0.00 | 63 | 1016.1 |
| 20260905211424 | 71 | 293 | 10.0 | 17.0 | 0.00 | 0.00 | 0.00 | 61 | 1016.1 |
| 20260905210419 | 72 | 294 | 10.0 | 18.0 | 0.00 | 0.00 | 0.00 | 60 | 1016.1 |
| 20260905205430 | 73 | 279 | 7.0 | 17.0 | 0.00 | 0.00 | 0.00 | 56 | 1016.0 |
| 20260905204422 | 75 | 316 | 8.0 | 14.0 | 0.00 | 0.00 | 0.00 | 54 | 1015.9 |
| 20260905203440 | 75 | 287 | 4.0 | 11.0 | 0.00 | 0.00 | 0.00 | 53 | 1015.7 |
| 20260905202432 | 75 | 319 | 5.0 | 11.0 | 0.00 | 0.00 | 0.00 | 54 | 1015.7 |
| 20260905201445 | 75 | 278 | 1.0 | 7.0 | 0.00 | 0.00 | 0.00 | 53 | 1015.9 |
| 20260905200439 | 75 | 194 | 3.0 | 7.0 | 0.00 | 0.00 | 0.00 | 54 | 1016.1 |
| 20260905195434 | 75 | 288 | 3.0 | 7.0 | 0.00 | 0.00 | 0.00 | 53 | 1016.0 |
| 20260905194426 | 75 | 288 | 1.0 | 11.0 | 0.00 | 0.00 | 0.00 | 55 | 1016.1 |
| 20260905193441 | 74 | 282 | 1.0 | 5.0 | 0.00 | 0.00 | 0.00 | 59 | 1016.1 |
| 20260905192454 | 73 | 287 | 2.0 | 8.0 | 0.00 | 0.00 | 0.00 | 63 | 1016.1 |
| 20260905191430 | 71 | 283 | 2.0 | 6.0 | 0.00 | 0.00 | 0.00 | 68 | 1016.3 |
| 20260905190424 | 67 | 104 | 2.0 | 7.0 | 0.00 | 0.00 | 0.00 | 93 | 1016.4 |
| 20260905185417 | 66 | 300 | 2.0 | 8.0 | 0.00 | 0.00 | 0.00 | 94 | 1016.4 |
| 20260905184431 | 65 | 173 | 2.0 | 7.0 | 0.00 | 0.00 | 0.00 | 94 | 1016.5 |
| 20260905183428 | 64 | 338 | 2.0 | 8.0 | 0.00 | 0.00 | 0.00 | 94 | 1016.4 |
| 20260905182418 | 63 | 353 | 3.0 | 6.0 | 0.00 | 0.00 | 0.00 | 94 | 1016.3 |
| 20260905091418 | 55 | 305 | 0.0 | 0.0 | 0.00 | 0.01 | 0.00 | 96 | 1015.8 |
| 20260905090431 | 55 | 304 | 0.0 | 0.0 | 0.00 | 0.01 | 0.00 | 96 | 1015.8 |
| 20260905085423 | 55 | 305 | 0.0 | 1.0 | 0.00 | 0.01 | 0.00 | 96 | 1015.9 |
| 20260905084421 | 55 | 305 | 0.0 | 1.0 | 0.00 | 0.01 | 0.00 | 96 | 1015.9 |
| 20260905083455 | 55 | 305 | 0.0 | 1.0 | 0.00 | 0.01 | 0.00 | 95 | 1015.9 |
| 20260905082428 | 55 | 305 | 0.0 | 1.0 | 0.00 | 0.01 | 0.00 | 95 | 1015.9 |
| 20260905081419 | 55 | 305 | 0.0 | 2.0 | 0.00 | 0.01 | 0.00 | 96 | 1015.9 |
| 20260905080416 | 55 | 279 | 0.0 | 1.0 | 0.00 | 0.01 | 0.00 | 95 | 1015.9 |
| 20260905075428 | 54 | 279 | 0.0 | 1.0 | 0.00 | 0.01 | 0.00 | 95 | 1015.9 |
| 20260905074421 | 54 | 279 | 0.0 | 0.0 | 0.00 | 0.01 | 0.00 | 95 | 1015.9 |
| 20260905073419 | 54 | 279 | 0.0 | 0.0 | 0.00 | 0.01 | 0.00 | 95 | 1015.9 |
| 20260905072433 | 55 | 279 | 0.0 | 0.0 | 0.00 | 0.01 | 0.00 | 95 | 1015.9 |
| 20260905071427 | 55 | 279 | 0.0 | 0.0 | 0.00 | 0.01 | 0.00 | 95 | 1016.0 |
| 20260905070441 | 55 | 279 | 0.0 | 1.0 | 0.00 | 0.01 | 0.00 | 95 | 1015.9 |
| 20260905065417 | 55 | 275 | 0.0 | 1.0 | 0.00 | 0.01 | 0.01 | 95 | 1015.9 |
| 20260905064431 | 55 | 273 | 0.0 | 0.0 | 0.00 | 0.01 | 0.01 | 94 | 1015.9 |
| 20260905063426 | 55 | 273 | 0.0 | 0.0 | 0.00 | 0.01 | 0.01 | 94 | 1015.9 |
| 20260905062419 | 56 | 273 | 0.0 | 0.0 | 0.00 | 0.01 | 0.01 | 94 | 1015.9 |